Starlink 30967

operational
NORAD ID: 58416 Int'l Des: 2023-180 Owner: SPXS Country: US Constellation: starlink
LEOCIRCULAR

Über Starlink 30967

Beschreibung wird geladen...

Live-Position

3D-Globus wird geladen...

Nächste Überflüge

Höhenverlauf

Altitude vs Time

uPlot chart will show altitude changes over time

Zweizeiliger Elementsatz

1 58416U 23180Q 25300.73445751 .00001078 00000-0 94875-4 0 9997
2 58416 43.0034 58.5841 0001408 265.9414 94.1268 15.02536468107586
Epoch: 27. Okt. 2025 • Age: 18 hours

Aktueller Status

Höhe 558.4 km
Geschwindigkeit 7.58 km/s
Subsatellitenpunkt 10.94°N, 139.29°W
Startdatum 22. Nov. 2023
Alter 1.9 years
Typ internet

Technische Details

Klassifizierung Payload
Masse 730.00 kg
Trockenmasse 700.00 kg
Gesamtmasse 730.00 kg
Länge 0.30 m
Durchmesser 4.10 m
Spannweite 29.00 m
Form Box + pan
Hersteller SPXS
Bus-Typ Starlink V2M
Phasenstatus In Orbit
Besitzer/Staat SPXS/US

Große Konstellationen

Loading constellations...